Cheraw, SC

7:39 PM EDT on May 26, 2018 (GMT -0400)
Cheraw

Weather History for KCQW - February, 2012

Change the Weather History Date:

Tuesday, February 28, 2012

  Actual Average (KFLO) Record (KFLO)
Temperature  
Mean Temperature 54 °F -  
Max Temperature 60 °F 62 °F 84 °F (1962)
Min Temperature 48 °F 39 °F 19 °F (2002)
Degree Days  
Heating Degree Days 11    
Growing Degree Days 4 (Base 50)    
Moisture  
Dew Point 48 °F    
Average Humidity 94    
Maximum Humidity 100    
Minimum Humidity 52    
Precipitation  
Precipitation 0.00 in - - ()
Sea Level Pressure  
Sea Level Pressure 30.40 in    
Wind  
Wind Speed 2 mph (NNE)    
Max Wind Speed 8 mph    
Max Gust Speed -    
Visibility 4 miles    
Events Fog    
Averages and records for this station are not official NWS values.
T = Trace of Precipitation, MM = Missing Value Source: NWS Daily Summary

Daily Weather History Graph

Daily Weather History Graph

Search for Another Location

Airport or City:

Astronomy

Feb. 28, 2012 Rise Set
Actual Time 6:50 AM EST 6:14 PM EST
Civil Twilight 6:25 AM EST 6:39 PM EST
Nautical Twilight 5:56 AM EST 7:09 PM EST
Astronomical Twilight 5:27 AM EST 7:38 PM EST
Moon 10:15 AM EST (2/28) No Moon Set
Length of Visible Light 12h 14m
Length of Day
11h 23m
Waxing Crescent, 37% of the Moon is Illuminated
Feb 28
Waxing Crescent
Feb 29
First Quarter
Mar 8
Full
Mar 14
Last Quarter
Mar 22
New

Hourly Weather History & Observations

Time (EST) Temp. Dew Point Humidity Pressure Visibility Wind Dir Wind Speed Gust Speed Precip Events Conditions
12:15 AM 48.2 °F 48.2 °F 100% 30.38 in 2.0 mi Calm Calm - N/A   Overcast
12:35 AM 48.2 °F 48.2 °F 100% 30.38 in 2.5 mi Calm Calm - N/A   Overcast
12:55 AM 48.2 °F 48.2 °F 100% 30.38 in 2.5 mi North 3.5 mph - N/A   Overcast
1:15 AM 48.2 °F 48.2 °F 100% 30.38 in 3.0 mi NNW 3.5 mph - N/A   Overcast
1:35 AM 48.2 °F 48.2 °F 100% 30.37 in 3.0 mi Calm Calm - N/A   Overcast
1:55 AM 48.2 °F 48.2 °F 100% 30.37 in 2.5 mi North 3.5 mph - N/A   Overcast
2:15 AM 48.2 °F 48.2 °F 100% 30.37 in 2.5 mi Calm Calm - N/A   Overcast
2:35 AM 48.2 °F 48.2 °F 100% 30.37 in 2.0 mi Calm Calm - N/A   Overcast
2:55 AM 48.2 °F 48.2 °F 100% 30.37 in 1.2 mi Calm Calm - N/A   Overcast
3:15 AM 48.2 °F 48.2 °F 100% 30.37 in 0.8 mi Calm Calm - N/A   Overcast
3:35 AM 48.2 °F 48.2 °F 100% 30.37 in 0.8 mi Calm Calm - N/A   Overcast
3:55 AM 48.2 °F 48.2 °F 100% 30.37 in 0.5 mi Calm Calm - N/A Fog Fog
4:15 AM 48.2 °F 48.2 °F 100% 30.38 in 0.5 mi Calm Calm - N/A Fog Fog
4:35 AM 48.2 °F 48.2 °F 100% 30.38 in 0.5 mi Calm Calm - N/A Fog Fog
4:55 AM 48.2 °F 48.2 °F 100% 30.38 in 1.8 mi North 3.5 mph - N/A   Overcast
5:15 AM 48.2 °F 48.2 °F 100% 30.39 in 1.5 mi North 3.5 mph - N/A   Overcast
5:35 AM 48.2 °F 48.2 °F 100% 30.39 in 1.0 mi North 3.5 mph - N/A   Overcast
5:55 AM 48.2 °F 48.2 °F 100% 30.39 in 1.0 mi North 3.5 mph - N/A   Overcast
6:15 AM 48.2 °F 48.2 °F 100% 30.40 in 1.2 mi North 3.5 mph - N/A   Overcast
6:35 AM 48.2 °F 48.2 °F 100% 30.40 in 2.0 mi North 5.8 mph - N/A   Overcast
6:55 AM 48.2 °F 48.2 °F 100% 30.41 in 2.0 mi NE 3.5 mph - N/A   Overcast
7:15 AM 48.2 °F 48.2 °F 100% 30.41 in 3.0 mi NE 5.8 mph - N/A   Overcast
7:35 AM 48.2 °F 48.2 °F 100% 30.42 in 3.0 mi North 4.6 mph - N/A   Overcast
7:55 AM 48.2 °F 48.2 °F 100% 30.42 in 2.5 mi North 4.6 mph - N/A   Overcast
8:15 AM 48.2 °F 48.2 °F 100% 30.43 in 2.5 mi North 3.5 mph - N/A   Overcast
8:35 AM 48.2 °F 48.2 °F 100% 30.43 in 3.0 mi Calm Calm - N/A   Mostly Cloudy
8:55 AM 48.2 °F 48.2 °F 100% 30.43 in 5.0 mi North 4.6 mph - N/A   Partly Cloudy
9:15 AM 51.8 °F 48.2 °F 88% 30.44 in 8.0 mi NE 5.8 mph - N/A   Clear
9:35 AM 53.6 °F 48.2 °F 82% 30.44 in 9.0 mi NE 3.5 mph - N/A   Clear
9:55 AM 53.6 °F 48.2 °F 82% 30.43 in 10.0 mi NE 5.8 mph - N/A   Clear
10:15 AM 55.4 °F 48.2 °F 77% 30.43 in 10.0 mi ENE 4.6 mph - N/A   Clear
10:35 AM 57.2 °F 46.4 °F 67% 30.43 in 10.0 mi NE 5.8 mph - N/A   Clear
10:55 AM 60.8 °F 44.6 °F 55% 30.43 in 10.0 mi NE 8.1 mph - N/A   Clear
11:15 AM 60.8 °F 42.8 °F 52% 30.43 in 10.0 mi NE 8.1 mph - N/A   Clear
11:35 AM - - N/A% - - North - - N/A   Unknown
11:55 AM - - N/A% - - North - - N/A   Unknown
12:15 PM - - N/A% - - North - - N/A   Unknown
12:35 PM - - N/A% - - North - - N/A   Unknown
12:55 PM - - N/A% - - North - - N/A   Unknown
1:15 PM - - N/A% - - North - - N/A   Unknown
1:35 PM - - N/A% - - North - - N/A   Unknown
1:55 PM - - N/A% - - North - - N/A   Unknown
2:15 PM - - N/A% - - North - - N/A   Unknown
2:35 PM - - N/A% - - North - - N/A   Unknown
2:55 PM - - N/A% - - North - - N/A   Unknown
3:15 PM - - N/A% - - North - - N/A   Unknown
3:35 PM - - N/A% - - North - - N/A   Unknown
3:55 PM - - N/A% - - North - - N/A   Unknown
4:15 PM - - N/A% - - North - - N/A   Unknown
4:35 PM - - N/A% - - North - - N/A   Unknown
4:55 PM - - N/A% - - North - - N/A   Unknown
5:15 PM - - N/A% - - North - - N/A   Unknown
5:35 PM - - N/A% - - North - - N/A   Unknown
5:55 PM - - N/A% - - North - - N/A   Unknown
6:15 PM - - N/A% - - North - - N/A   Unknown
6:35 PM - - N/A% - - North - - N/A   Unknown
6:55 PM - - N/A% - - North - - N/A   Unknown
7:15 PM - - N/A% - - North - - N/A   Unknown
7:35 PM - - N/A% - - North - - N/A   Unknown
7:55 PM - - N/A% - - North - - N/A   Unknown
8:15 PM - - N/A% - - North - - N/A   Unknown
8:35 PM - - N/A% - - North - - N/A   Unknown
8:55 PM - - N/A% - - North - - N/A   Unknown
9:15 PM - - N/A% - - North - - N/A   Unknown
9:35 PM - - N/A% - - North - - N/A   Unknown
9:55 PM - - N/A% - - North - - N/A   Unknown
10:15 PM - - N/A% - - North - - N/A   Unknown
10:35 PM - - N/A% - - North - - N/A   Unknown
10:55 PM - - N/A% - - North - - N/A   Unknown
11:15 PM - - N/A% - - North - - N/A   Unknown
11:35 PM - - N/A% - - North - - N/A   Unknown
11:55 PM - - N/A% - - North - - N/A   Unknown